LAPAN-A3 (41603 NORAD) Tracking and Keplerian Element Data

This shows tracking and keplerian element data for the satellite.

Feedback or suggestion? Click here.




ElementValue
Catalog41603
NameLAPAN-A3
Epoch Orbit35585
Epoch Day325.15577214
Epoch Year2022
RAAN355.2564
Inclination97.1909
Eccentricity0.0012377
Argument of Perigee337.4468
Mean Anonmoly107.9685
Mean Motion15.21148092
Decay Rate1.406E-05
L11 41603U 16040E 22325.15577214 .00001406 00000+0 65980-4 0 9993
L22 41603 97.1909 355.2564 0012377 337.4468 107.9685 15.21148092355851



Live tracking and technical data element details for LAPAN-A3 (NORAD 41603). LAPAN-A3 can be tracked NOW for your location showing map with azimuth and elevation plus other details from your city location.







IsCatalogInMostPopularTable: catalog: 41603, numindb: 574
Update: records affected: 1



GetName: 41603 LAPAN-A3

Hit Count: updated at: Mon, 28 Nov 2022 04:29:57 GMT